Weather in Berezniki

Russia / Perm Krai     58°30′57″N   54°23′18″E
temp.,
°C
wind,
m/s
gust,
m/s
humid.,
%
clouds,
%
prec.,
mm/h
press.,
hPa
HPBL,
m
28 february, sun
sun2823:00−16ene41094100 0.3 1009419
02:00−19ene3896100 0.0 1009298
05:00−21ene389797 0.1 1010252
08:00−22ne389796 0.0 1010260
11:00−19ne379397 0.1 1010363
14:00−16ne4689100 0.0 1011510
17:00−14ne3788100 0.1 1012646
20:00−16nne2697100 0.1 1014149
1 march, mon
mon123:00−18ne239899 0.1 101554
02:00−21nne239862 0.0 101729
05:00−23nne229840 0.0 101824
08:00−23nne229818 0.0 101920
11:00−18ene12909 0.0 1020195
14:00−12sw118386 0.0 1018404
17:00−12ssw228693 0.0 1017430
20:00−17s339671 0.0 101568
2 march, tue
tue223:00−18ssw389779 0.0 1014173
02:00−16s4119487 0.0 1011353
05:00−15s4109393 0.0 1008390
08:00−15s51195100 0.4 1004427
11:00−15s51194100 1.4 1003456
14:00−12s5993100 0.9 1001498
17:00−11s4993100 1.6 1000540
20:00−11s4994100 0.7 999450
3 march, wed
wed323:00−11s3795100 1.2 999315
02:00−12sse2497100 0.4 998137
05:00−12ssw1297100 0.5 99851
08:00−13sw1297100 0.1 99722
11:00−9wsw129397 0.2 998219
14:00−5wnw249196 0.2 998466
17:00−5nnw489198 0.8 999678
20:00−8nw279697 0.1 1000283
4 march, thu
thu423:00−10nw389390 0.3 1002183
02:00−12wnw259746 0.0 1002128
05:00−14wnw369644 0.0 1003119
08:00−15w389616 0.0 1003165
11:00−11w369235 0.0 1003315
14:00−7wsw368682 0.0 1002738
17:00−7ssw488991 0.1 1000642
20:00−7ssw61293100 0.5 997880